Regional Weather Roundup
Issued by NWS

Home | Current Version | Previous Version | Text Only | Print | Product List | Glossary On
Versions: 1 2 3 4 5 6 7 8 9 10 11 12 13 14 15 16 17 18 19 20 21 22 23 24 25 26 27 28
000
ASUS45 KBOU 231510
RWRCO

WEATHER ROUNDUP FOR COLORADO
NATIONAL WEATHER SERVICE DENVER/BOULDER CO
800 AM MST TUE JAN 23 2018

NOTE: "FAIR" INDICATES FEW OR NO CLOUDS BELOW 12000 FEET WITH NO
SIGNIFICANT WEATHER AND/OR OBSTRUCTIONS TO VISIBILITY.

COZ001>005-013-030-031-231600-
...NORTHWEST COLORADO...

CITY           SKY/WX    TMP DP  RH WIND       PRES   REMARKS
CRAIG          FAIR      -2  -7  79 CALM      30.33R
HAYDEN         CLOUDY     9   5  84 CALM      30.31R
MEEKER         FAIR       4   2  91 CALM      30.31R
RABBIT EARS PA SNOW     N/A N/A N/A W14G22    30.11S VSB 1/4
STEAMBOAT SPGS CLOUDY    13  11  90 CALM      30.28R VSB 1
WALDEN         FAIR      16   5  62 W15G21    30.20R WCI   1
$$

COZ006>008-011-231600-
...WEST CENTRAL VALLEYS...

CITY           SKY/WX    TMP DP  RH WIND       PRES   REMARKS
GRAND JUNCTION FAIR      15  13  91 E5        30.36R WCI   8
MONTROSE       FAIR      13   8  81 SE7       30.37R WCI   3
EAGLE          FAIR      10   6  84 E3        30.35R
RIFLE          FAIR      18  14  84 E6        30.35R WCI  10
DELTA          FAIR      16  11  82 CALM      30.37R
NUCLA          FAIR      12   5  73 SE7       30.37R WCI   2
$$

COZ017>023-064>068-231600-
...SOUTHWEST COLORADO...

CITY           SKY/WX    TMP DP  RH WIND       PRES   REMARKS
DURANGO        FAIR       2   1  96 E3        30.26R
CORTEZ         FAIR       6   2  83 NE7       30.29R WCI  -6
PAGOSA SPRINGS FAIR       4   1  87 CALM      30.24R
TELLURIDE      FAIR       9   3  77 SE6       30.25R WCI  -1
WOLF CREEK PAS FAIR      12 -15  29 W6        30.20R WCI   3
$$

COZ009-010-012-014-032>034-037-058>063-231600-
...CENTRAL COLORADO...

CITY           SKY/WX    TMP DP  RH WIND       PRES   REMARKS
ASPEN          FAIR       8   4  83 CALM      30.26R
BUENA VISTA    FAIR      15   3  57 N6        30.19S WCI   7
COPPER MTN     NOT AVBL
BERTHOUD PASS  SNOW       0 -11  60 NW37G46   30.03F VSB 1/4 WCI -28
COTTONWOOD PAS FAIR      23   5  46 NW8G39    30.12S WCI  14
GUNNISON       FAIR      -5 -11  75 E5        30.33R WCI -16
KREMMLING      CLOUDY    18  12  79 CALM      30.28R
LEADVILLE      MOCLDY     5  -1  76 VRB6      30.17R WCI  -6
MONARCH PASS   MOCLDY     3   0  85 MISG      30.18S
SALIDA         FAIR      17   5  61 NW5       30.28R WCI   9
SUNLIGHT       LGT SNOW   9   5  85 MISG      30.23S
WILKERSON PASS FAIR       7  -2  66 NW7G17    30.10R WCI  -5
$$

COZ069>075-231600-
...SAN LUIS VALLEY/SANGRE DE CRISTO MOUNTAINS...

CITY           SKY/WX    TMP DP  RH WIND       PRES   REMARKS
ALAMOSA        FAIR      -5  -8  87 CALM      30.25R
DEL NORTE      FAIR       9  -4  54 W16       30.24R WCI  -9
LA VETA PASS   FAIR       9   1  72 SW31G37     N/A  WCI -14
SAGUACHE       FAIR      10   1  67 N10       30.24R WCI  -3
$$

COZ035-036-038>040-231600-
...NORTHERN COLORADO FRONT RANGE...

CITY           SKY/WX    TMP DP  RH WIND       PRES   REMARKS
DENVER INTL AP FAIR      26   7  44 CALM      30.18R
DMNS CITY PARK NOT AVBL
AURORA         PTCLDY    25   7  46 W6        30.18R WCI  18
FRONT RANGE AP PTCLDY    25   9  50 SW6       30.17R WCI  18
ERIE MUNI ARPT FAIR      15   7  71 CALM      30.25R
BOULDER MUN AP FAIR      28   9  43 N12G20    30.17S WCI  18
CENTENNIAL     FAIR      21   6  52 CALM      30.17R
BROOMFIELD     NOT AVBL
FORT COLLINS   FAIR      20  11  68 W5        30.20R WCI  13
LONGMONT       FAIR      22  11  64 E5        30.20S WCI  15
$$

COZ041-046-047-076>085-087-088-231600-
...PIKES PEAK/PALMER DIVIDE AND SOUTHERN FOOTHILLS...

CITY           SKY/WX    TMP DP  RH WIND       PRES   REMARKS
COLO. SPRINGS  FAIR      20   7  57 W8        30.17R WCI  10
A. F. ACADEMY  FAIR      17   1  49 N6        30.16R WCI   9
SCHRIEVER AFB  FAIR      23   5  47 NE3       30.17R
CHEYENNE MTN   FAIR      26   3  37 CALM      30.10R
ELLICOTT         N/A    N/A N/A N/A NE3         N/A
FALCON         FAIR      24   2  39 N8        30.17R WCI  15
FORT CARSON    FAIR      21   8  58 N6        30.16R WCI  13
LIMON          FAIR       9   3  77 NW3       30.19R
MONUMENT HILL  FAIR      12   0  57 SW5       30.17R WCI   4
CANON CITY     FAIR      27  10  50 W10       30.18R WCI  17
WALSENBURG     NOT AVBL
TRINIDAD       FAIR      16   4  59 W8        30.19R WCI   5
$$

COZ042>045-048>051-090-091-231600-
...NORTHEAST COLORADO...

CITY           SKY/WX    TMP DP  RH WIND       PRES   REMARKS
GREELEY ARPT   FAIR      13  10  88 S3        30.20S
AKRON          FAIR      15   9  76 W10       30.18R WCI   2
BURLINGTON     FAIR      16   9  74 W9        30.20R WCI   4
WRAY           FAIR      27  19  74 NW14      30.19R WCI  15
YUMA           FAIR      18  10  73 W8        30.18R WCI   7
STERLING       FAIR      27  19  74 NW13      30.17S WCI  16
HOLYOKE        FAIR      30  21  69 W10       30.18R WCI  21
FORT MORGAN    FAIR      17  10  74 W8        30.20R WCI   7
$$

COZ086-089-092>099-231600-
...SOUTHEAST COLORADO...

CITY           SKY/WX    TMP DP  RH WIND       PRES   REMARKS
PUEBLO         FAIR      16  10  77 CALM      30.21R
LA JUNTA       FAIR      18  10  71 NW6       30.23R WCI  10
LAMAR          FAIR      11   5  77 CALM      30.23R
SPRINGFIELD      N/A     17  11  77 SW5       30.20R WCI  10
$$




USA.gov is the U.S. government's official web portal to all federal, state and local government web resources and services.